This demonstration page uses our WeatherBlox Daily Observations layout. Learn more.

Left ArrowRight Arrow

36.17497, -115.13722

Hourly Observations for April 21, 2017

Temp ( °F °C ) Dew Point ( °F °C ) Humidity (%) Winds ( mph kmh ) Pressure ( in mb ) Visibility ( mi km ) Precip ( " mm )
12:53 am 00:53 Clear 71 21.7 12 -11.1 10 10 NNW 20 31 30.01 1016 10 16.0934 N/A
1:53 am 01:53 Clear 70 21.1 12 -11.1 10 10 NNW 23 37 30.01 1016 10 16.0934 N/A
2:53 am 02:53 Clear 67 19.4 20 -6.7 17 17 NNW 25 41 30.02 1017 10 16.0934 N/A
3:53 am 03:53 Clear 66 18.9 21 -6.1 18 18 NNW 24 39 30.05 1018 10 16.0934 N/A
4:53 am 04:53 Clear 64 17.8 22 -5.6 20 20 NNW 21 33 30.07 1018 10 16.0934 N/A
5:53 am 05:53 Clear 61 16.1 23 -5 23 23 NNE 9 15 30.1 1019 10 16.0934 N/A
6:53 am 06:53 Sunny 62 16.7 23 -5 22 22 NNE 15 24 30.12 1020 10 16.0934 N/A
7:53 am 07:53 Sunny 63 17.2 24 -4.4 23 23 N 15 24 30.15 1021 10 16.0934 N/A
8:53 am 08:53 Sunny 66 18.9 23 -5 19 19 N 21 33 30.13 1020 10 16.0934 N/A
9:53 am 09:53 Sunny 68 20 21 -6.1 17 17 N 16 26 30.14 1021 10 16.0934 N/A
10:53 am 10:53 Sunny 70 21.1 19 -7.2 14 14 NNW 20 31 30.12 1020 10 16.0934 N/A
11:53 am 11:53 Sunny 73 22.8 18 -7.8 12 12 NNW 13 20 30.09 1019 10 16.0934 N/A
12:53 pm 12:53 Sunny 74 23.3 16 -8.9 11 11 NNW 13 20 30.06 1018 10 16.0934 N/A
1:53 pm 13:53 Sunny 77 25 14 -10 9 9 NNW 12 19 30.04 1017 10 16.0934 N/A
2:53 pm 14:53 Sunny 78 25.6 14 -10 9 9 N 13 20 30.01 1016 10 16.0934 N/A
3:53 pm 15:53 Sunny 78 25.6 14 -10 9 9 ESE 8 13 29.98 1015 10 16.0934 N/A
4:53 pm 16:53 Sunny 79 26.1 14 -10 8 8 ENE 6 9 29.97 1015 10 16.0934 N/A
5:53 pm 17:53 Sunny 78 25.6 13 -10.6 8 8 N N/A 29.97 1015 10 16.0934 N/A
6:53 pm 18:53 Sunny 77 25 14 -10 9 9 ESE 9 15 29.95 1014 10 16.0934 N/A
7:53 pm 19:53 Clear 75 23.9 13 -10.6 9 9 SE 6 9 29.96 1015 10 16.0934 N/A
8:53 pm 20:53 Clear 73 22.8 18 -7.8 12 12 S 3 6 29.98 1015 10 16.0934 N/A
9:53 pm 21:53 Clear 72 22.2 19 -7.2 13 13 N N/A 29.99 1016 10 16.0934 N/A
10:53 pm 22:53 Clear 69 20.6 20 -6.7 15 15 E 9 15 30 1016 10 16.0934 N/A
11:53 pm 23:53 Clear 67 19.4 22 -5.6 18 18 E 8 13 30.02 1017 10 16.0934 N/A

Powered by AerisWeather